Location: Harwich
(41.7160°N, 69.9939°W)
Time: 03:40:47
(UTC+02:00)

JY1SAT - Visible Passes

Search period start: 11 July 2025 00:00
Search period end: 21 July 2025 00:00
Orbit: 496 x 507 km, 97.5° (Epoch: 10 July)

Date Brightness Start Highest point End Pass type
(mag) Time Alt. Az. Time Alt. Az. Time Alt. Az.
11 Jul ? 02:49:55 10° ESE 02:52:49 23° ENE 02:55:43 10° NNE visible
11 Jul ? 04:24:06 13° SW 04:26:30 22° W 04:29:26 10° NW visible
12 Jul ? 04:04:46 16° SSW 04:07:15 38° W 04:10:42 10° NNW visible
13 Jul ? 03:45:26 18° S 03:48:02 70° W 03:51:42 10° NNW visible
14 Jul ? 03:26:05 16° SSE 03:28:52 64° ENE 03:32:30 10° N visible
15 Jul ? 03:06:43 12° SE 03:09:44 35° ENE 03:13:07 10° N visible
15 Jul ? 04:41:39 10° SW 04:43:39 14° W 04:45:40 10° WNW visible
16 Jul ? 02:47:49 10° ESE 02:50:39 21° ENE 02:53:29 10° NNE visible
16 Jul ? 04:22:03 14° SW 04:24:18 24° W 04:27:19 10° NW visible
17 Jul ? 04:02:40 18° SSW 04:04:59 41° W 04:08:29 10° NNW visible
18 Jul ? 03:43:17 20° S 03:45:44 76° WSW 03:49:24 10° NNW visible
19 Jul ? 03:23:52 17° SSE 03:26:30 59° ENE 03:30:07 10° N visible
20 Jul ? 03:04:28 13° SE 03:07:19 33° ENE 03:10:39 10° N visible
20 Jul ? 04:39:10 11° SW 04:41:12 15° W 04:43:24 10° NW visible
